Time,TemperatureF,DewpointF,PressureIn,WindDirection,WindDirectionDegrees,WindSpeedMPH,WindSpeedGustMPH,Humidity,HourlyPrecipIn,Conditions,Clouds,dailyrainin,SoftwareType,DateUTC
2013-08-05 00:00:00,69.0,58.0,30.11,SSE,160,0.0,0.0,68,0.00,CLR,SCT,0.00,WeatherDisplay:10.37,2013-08-05 04:00:00,
2013-08-05 00:01:00,69.0,58.4,30.11,SSE,160,0.0,0.0,69,0.00,BKN,SCT,0.00,WeatherDisplay:10.37,2013-08-05 04:01:00,
2013-08-05 00:06:00,69.0,58.4,30.11,SSE,160,0.0,0.0,69,0.00,BKN,SCT,0.00,WeatherDisplay:10.37,2013-08-05 04:06:00,
2013-08-05 00:11:00,69.0,58.8,30.10,SSE,160,0.0,0.0,70,0.00,BKN,SCT,0.00,WeatherDisplay:10.37,2013-08-05 04:11:00,
2013-08-05 00:17:00,68.8,58.7,30.11,SSE,160,0.0,0.0,70,0.00,BKN,SCT,0.00,WeatherDisplay:10.37,2013-08-05 04:17:00,
2013-08-05 00:21:00,68.7,58.6,30.11,SSE,160,0.0,0.0,70,0.00,BKN,SCT,0.00,WeatherDisplay:10.37,2013-08-05 04:21:00,
2013-08-05 00:26:00,68.7,58.6,30.11,SSE,160,0.0,0.0,70,0.00,BKN,SCT,0.00,WeatherDisplay:10.37,2013-08-05 04:26:00,
2013-08-05 00:32:00,68.8,58.7,30.11,SSE,160,0.0,0.0,70,0.00,BKN,SCT,0.00,WeatherDisplay:10.37,2013-08-05 04:32:00,
2013-08-05 00:37:00,68.7,58.6,30.11,SSE,160,0.0,0.0,70,0.00,BKN,SCT,0.00,WeatherDisplay:10.37,2013-08-05 04:37:00,
2013-08-05 00:42:00,68.7,58.6,30.11,SSE,160,0.0,0.0,70,0.00,BKN,SCT,0.00,WeatherDisplay:10.37,2013-08-05 04:42:00,
2013-08-05 00:47:00,68.5,58.8,30.11,SSE,160,0.0,0.0,71,0.00,BKN,SCT,0.00,WeatherDisplay:10.37,2013-08-05 04:47:00,
2013-08-05 00:51:00,68.4,58.7,30.11,SSE,160,0.0,0.0,71,0.00,BKN,SCT,0.00,WeatherDisplay:10.37,2013-08-05 04:51:00,
2013-08-05 00:57:00,68.4,58.7,30.11,SSE,160,0.0,0.0,71,0.00,BKN,SCT,0.00,WeatherDisplay:10.37,2013-08-05 04:57:00,
2013-08-05 01:02:00,68.3,58.6,30.11,ENE,73,0.0,0.2,71,0.00,BKN,SCT,0.00,WeatherDisplay:10.37,2013-08-05 05:02:00,
2013-08-05 01:07:00,68.2,58.5,30.10,ENE,73,0.0,0.0,71,0.00,BKN,SCT,0.00,WeatherDisplay:10.37,2013-08-05 05:07:00,
2013-08-05 01:12:00,68.2,58.5,30.10,ENE,73,0.0,0.0,71,0.00,BKN,SCT,0.00,WeatherDisplay:10.37,2013-08-05 05:12:00,
2013-08-05 01:17:00,68.1,58.8,30.10,ENE,73,0.0,0.0,72,0.00,BKN,SCT,0.00,WeatherDisplay:10.37,2013-08-05 05:17:00,
2013-08-05 01:22:00,68.0,58.7,30.09,ENE,73,0.0,0.0,72,0.00,BKN,SCT,0.00,WeatherDisplay:10.37,2013-08-05 05:22:00,
2013-08-05 01:27:00,67.8,58.5,30.10,ENE,73,0.0,0.0,72,0.00,BKN,SCT,0.00,WeatherDisplay:10.37,2013-08-05 05:27:00,
2013-08-05 01:32:00,67.7,58.8,30.10,ENE,64,0.0,0.0,73,0.00,BKN,SCT,0.00,WeatherDisplay:10.37,2013-08-05 05:32:00,
2013-08-05 01:37:00,67.7,58.4,30.10,ENE,64,0.0,0.0,72,0.00,BKN,SCT,0.00,WeatherDisplay:10.37,2013-08-05 05:37:00,
2013-08-05 01:42:00,67.8,58.5,30.10,ENE,64,0.0,0.0,72,0.00,BKN,SCT,0.00,WeatherDisplay:10.37,2013-08-05 05:42:00,
2013-08-05 01:47:00,67.7,58.8,30.10,ENE,64,0.0,0.0,73,0.00,BKN,SCT,0.00,WeatherDisplay:10.37,2013-08-05 05:47:00,
2013-08-05 01:52:00,67.5,58.6,30.10,ENE,64,0.0,0.0,73,0.00,BKN,SCT,0.00,WeatherDisplay:10.37,2013-08-05 05:52:00,
2013-08-05 01:57:00,67.6,58.7,30.10,ENE,64,0.0,0.0,73,0.00,BKN,SCT,0.00,WeatherDisplay:10.37,2013-08-05 05:57:00,
2013-08-05 02:02:00,67.5,58.6,30.10,ENE,64,0.0,0.0,73,0.00,OVC,SCT,0.00,WeatherDisplay:10.37,2013-08-05 06:02:00,
2013-08-05 02:07:00,67.5,58.6,30.10,ENE,64,0.0,0.0,73,0.00,OVC,SCT,0.00,WeatherDisplay:10.37,2013-08-05 06:07:00,
2013-08-05 02:12:00,67.5,58.2,30.10,ENE,64,0.0,0.0,72,0.00,OVC,SCT,0.00,WeatherDisplay:10.37,2013-08-05 06:12:00,
2013-08-05 02:17:00,67.3,58.0,30.10,ENE,64,0.0,0.0,72,0.00,OVC,SCT,0.00,WeatherDisplay:10.37,2013-08-05 06:17:00,
2013-08-05 02:22:00,67.5,58.2,30.11,ENE,64,0.0,0.0,72,0.00,OVC,SCT,0.00,WeatherDisplay:10.37,2013-08-05 06:22:00,
2013-08-05 02:27:00,67.7,58.0,30.10,ENE,64,0.0,0.0,71,0.00,OVC,SCT,0.00,WeatherDisplay:10.37,2013-08-05 06:27:00,
2013-08-05 02:32:00,67.7,58.4,30.10,ENE,64,0.0,0.0,72,0.00,OVC,SCT,0.00,WeatherDisplay:10.37,2013-08-05 06:32:00,
2013-08-05 02:37:00,67.6,59.1,30.10,ENE,64,0.0,0.0,74,0.00,OVC,SCT,0.00,WeatherDisplay:10.37,2013-08-05 06:37:00,
2013-08-05 02:42:00,67.3,58.8,30.10,ENE,64,0.0,0.0,74,0.00,OVC,SCT,0.00,WeatherDisplay:10.37,2013-08-05 06:42:00,
2013-08-05 02:47:00,67.3,58.4,30.10,ENE,64,0.0,0.0,73,0.00,OVC,SCT,0.00,WeatherDisplay:10.37,2013-08-05 06:47:00,
2013-08-05 02:52:00,67.2,58.3,30.10,ENE,64,0.0,0.0,73,0.00,OVC,SCT,0.00,WeatherDisplay:10.37,2013-08-05 06:52:00,
2013-08-05 02:57:00,67.4,58.5,30.10,ENE,64,0.0,0.0,73,0.00,OVC,SCT,0.00,WeatherDisplay:10.37,2013-08-05 06:57:00,
2013-08-05 03:02:00,67.3,58.8,30.10,ENE,64,0.0,0.0,74,0.00,BKN,SCT,0.00,WeatherDisplay:10.37,2013-08-05 07:02:00,
2013-08-05 03:07:00,67.3,58.8,30.10,ENE,64,0.0,0.0,74,0.00,BKN,SCT,0.00,WeatherDisplay:10.37,2013-08-05 07:07:00,
2013-08-05 03:12:00,67.2,58.7,30.10,ENE,64,0.0,0.0,74,0.00,BKN,SCT,0.00,WeatherDisplay:10.37,2013-08-05 07:12:00,
2013-08-05 03:17:00,67.2,58.7,30.10,ENE,64,0.0,0.0,74,0.00,BKN,SCT,0.00,WeatherDisplay:10.37,2013-08-05 07:17:00,
2013-08-05 03:22:00,67.1,58.9,30.10,ENE,64,0.0,0.0,75,0.00,BKN,SCT,0.00,WeatherDisplay:10.37,2013-08-05 07:22:00,
2013-08-05 03:27:00,67.0,59.2,30.10,ENE,64,0.0,0.0,76,0.00,BKN,SCT,0.00,WeatherDisplay:10.37,2013-08-05 07:27:00,
2013-08-05 03:32:00,67.0,59.2,30.10,ENE,72,0.8,0.8,76,0.00,BKN,SCT,0.00,WeatherDisplay:10.37,2013-08-05 07:32:00,
2013-08-05 03:37:00,66.9,59.1,30.10,ENE,72,0.0,0.0,76,0.00,BKN,SCT,0.00,WeatherDisplay:10.37,2013-08-05 07:37:00,
2013-08-05 03:42:00,66.7,58.9,30.10,ENE,72,0.0,0.0,76,0.00,BKN,SCT,0.00,WeatherDisplay:10.37,2013-08-05 07:42:00,
2013-08-05 03:47:00,66.6,59.2,30.10,ENE,72,0.0,0.0,77,0.00,BKN,SCT,0.00,WeatherDisplay:10.37,2013-08-05 07:47:00,
2013-08-05 03:52:00,66.3,58.9,30.10,ENE,72,0.0,0.0,77,0.00,BKN,SCT,0.00,WeatherDisplay:10.37,2013-08-05 07:52:00,
2013-08-05 03:57:00,66.2,59.2,30.10,ENE,72,0.0,0.0,78,0.00,BKN,SCT,0.00,WeatherDisplay:10.37,2013-08-05 07:57:00,
2013-08-05 04:02:00,66.0,59.3,30.10,ENE,72,0.0,0.0,79,0.00,SCT,,0.00,WeatherDisplay:10.37,2013-08-05 08:02:00,
2013-08-05 04:07:00,66.0,59.0,30.10,ENE,72,0.0,0.0,78,0.00,SCT,,0.00,WeatherDisplay:10.37,2013-08-05 08:07:00,
2013-08-05 04:12:00,66.1,59.1,30.10,ENE,72,0.0,0.0,78,0.00,SCT,,0.00,WeatherDisplay:10.37,2013-08-05 08:12:00,
2013-08-05 04:17:00,66.1,59.1,30.11,ENE,72,0.0,0.0,78,0.00,SCT,,0.00,WeatherDisplay:10.37,2013-08-05 08:17:00,
2013-08-05 04:22:00,66.1,59.1,30.10,ENE,72,0.0,0.0,78,0.00,SCT,,0.00,WeatherDisplay:10.37,2013-08-05 08:22:00,
2013-08-05 04:27:00,66.0,59.3,30.10,ENE,72,0.0,0.0,79,0.00,SCT,,0.00,WeatherDisplay:10.37,2013-08-05 08:27:00,
2013-08-05 04:33:00,65.8,59.1,30.10,ENE,72,0.0,0.0,79,0.00,SCT,,0.00,WeatherDisplay:10.37,2013-08-05 08:33:00,
2013-08-05 04:37:00,66.0,59.3,30.09,ENE,72,0.0,0.0,79,0.00,SCT,,0.00,WeatherDisplay:10.37,2013-08-05 08:37:00,
2013-08-05 04:43:00,65.9,59.2,30.09,ENE,72,0.0,0.0,79,0.00,SCT,,0.00,WeatherDisplay:10.37,2013-08-05 08:43:00,
2013-08-05 04:48:00,65.8,59.1,30.09,ENE,72,0.0,0.0,79,0.00,SCT,,0.00,WeatherDisplay:10.37,2013-08-05 08:48:00,
2013-08-05 04:53:00,65.6,58.9,30.09,ENE,72,0.0,0.0,79,0.00,SCT,,0.00,WeatherDisplay:10.37,2013-08-05 08:53:00,
2013-08-05 04:58:00,65.5,58.5,30.09,ENE,72,0.0,0.0,78,0.00,SCT,,0.00,WeatherDisplay:10.37,2013-08-05 08:58:00,
2013-08-05 05:03:00,65.1,58.1,30.08,ENE,72,0.0,0.0,78,0.00,SCT,,0.00,WeatherDisplay:10.37,2013-08-05 09:03:00,
2013-08-05 05:08:00,64.9,57.9,30.09,ENE,72,0.0,0.0,78,0.00,SCT,,0.00,WeatherDisplay:10.37,2013-08-05 09:08:00,
2013-08-05 05:14:00,64.7,57.7,30.09,ENE,72,0.0,0.0,78,0.00,SCT,,0.00,WeatherDisplay:10.37,2013-08-05 09:14:00,
2013-08-05 05:19:00,64.6,57.6,30.09,ENE,72,0.0,0.0,78,0.00,SCT,,0.00,WeatherDisplay:10.37,2013-08-05 09:19:00,
2013-08-05 05:24:00,64.6,57.6,30.09,ENE,72,0.0,0.0,78,0.00,SCT,,0.00,WeatherDisplay:10.37,2013-08-05 09:24:00,
2013-08-05 05:30:00,64.9,57.6,30.10,ENE,72,0.0,0.0,77,0.00,SCT,,0.00,WeatherDisplay:10.37,2013-08-05 09:30:00,
2013-08-05 05:34:00,64.7,57.4,30.10,ENE,72,0.0,0.0,77,0.00,SCT,,0.00,WeatherDisplay:10.37,2013-08-05 09:34:00,
2013-08-05 05:40:00,64.8,57.8,30.10,ENE,72,0.0,0.0,78,0.00,SCT,,0.00,WeatherDisplay:10.37,2013-08-05 09:40:00,
2013-08-05 05:45:00,64.8,57.8,30.10,ENE,72,0.0,0.0,78,0.00,SCT,,0.00,WeatherDisplay:10.37,2013-08-05 09:45:00,
2013-08-05 05:50:00,64.7,57.7,30.10,ENE,72,0.0,0.0,78,0.00,SCT,,0.00,WeatherDisplay:10.37,2013-08-05 09:50:00,
2013-08-05 05:56:00,64.5,57.9,30.10,ENE,72,0.0,0.0,79,0.00,SCT,,0.00,WeatherDisplay:10.37,2013-08-05 09:56:00,
2013-08-05 06:01:00,64.2,57.6,30.10,ENE,72,0.0,0.0,79,0.00,SCT,,0.00,WeatherDisplay:10.37,2013-08-05 10:01:00,
2013-08-05 06:06:00,64.3,57.7,30.10,ENE,72,0.0,0.0,79,0.00,BKN,SCT,0.00,WeatherDisplay:10.37,2013-08-05 10:06:00,
2013-08-05 06:12:00,64.2,57.6,30.10,ENE,72,0.0,0.0,79,0.00,BKN,SCT,0.00,WeatherDisplay:10.37,2013-08-05 10:12:00,
2013-08-05 06:17:00,64.0,57.7,30.10,ENE,72,0.0,0.0,80,0.00,BKN,SCT,0.00,WeatherDisplay:10.37,2013-08-05 10:17:00,
2013-08-05 06:22:00,63.8,57.5,30.11,ENE,72,0.0,0.0,80,0.00,BKN,SCT,0.00,WeatherDisplay:10.37,2013-08-05 10:22:00,
2013-08-05 06:27:00,63.8,57.9,30.11,ENE,72,0.0,0.0,81,0.00,BKN,SCT,0.00,WeatherDisplay:10.37,2013-08-05 10:27:00,
2013-08-05 06:33:00,63.7,57.8,30.11,ENE,72,0.0,0.0,81,0.00,BKN,SCT,0.00,WeatherDisplay:10.37,2013-08-05 10:33:00,
2013-08-05 06:37:00,63.5,57.9,30.11,ENE,72,0.0,0.0,82,0.00,BKN,SCT,0.00,WeatherDisplay:10.37,2013-08-05 10:37:00,
2013-08-05 06:43:00,63.2,57.7,30.11,ENE,72,0.0,0.0,82,0.00,BKN,SCT,0.00,WeatherDisplay:10.37,2013-08-05 10:43:00,
2013-08-05 06:48:00,63.4,57.8,30.12,ENE,72,0.0,0.0,82,0.00,BKN,SCT,0.00,WeatherDisplay:10.37,2013-08-05 10:48:00,
2013-08-05 06:53:00,63.2,57.7,30.12,ENE,72,0.0,0.0,82,0.00,BKN,SCT,0.00,WeatherDisplay:10.37,2013-08-05 10:53:00,
2013-08-05 06:58:00,63.1,57.6,30.12,ENE,72,0.0,0.0,82,0.00,BKN,SCT,0.00,WeatherDisplay:10.37,2013-08-05 10:58:00,
2013-08-05 07:04:00,63.5,57.9,30.12,ENE,72,0.0,0.0,82,0.00,SCT,,0.00,WeatherDisplay:10.37,2013-08-05 11:04:00,
2013-08-05 07:09:00,63.5,57.9,30.12,ENE,72,0.0,0.0,82,0.00,SCT,,0.00,WeatherDisplay:10.37,2013-08-05 11:09:00,
2013-08-05 07:14:00,63.5,57.9,30.11,ENE,72,0.0,0.0,82,0.00,SCT,,0.00,WeatherDisplay:10.37,2013-08-05 11:14:00,
2013-08-05 07:19:00,63.7,58.1,30.12,ENE,72,0.0,0.0,82,0.00,SCT,,0.00,WeatherDisplay:10.37,2013-08-05 11:19:00,
2013-08-05 07:24:00,63.7,58.1,30.12,ENE,72,0.0,0.0,82,0.00,SCT,,0.00,WeatherDisplay:10.37,2013-08-05 11:24:00,
2013-08-05 07:29:00,63.7,58.5,30.12,ENE,72,0.0,0.0,83,0.00,SCT,,0.00,WeatherDisplay:10.37,2013-08-05 11:29:00,
2013-08-05 07:35:00,63.6,58.0,30.12,ENE,72,0.0,0.0,82,0.00,SCT,SCT,0.00,WeatherDisplay:10.37,2013-08-05 11:35:00,
2013-08-05 07:40:00,63.5,57.9,30.12,ENE,72,0.0,0.0,82,0.00,SCT,,0.00,WeatherDisplay:10.37,2013-08-05 11:40:00,
2013-08-05 07:45:00,63.7,58.1,30.12,ENE,72,0.0,0.0,82,0.00,SCT,,0.00,WeatherDisplay:10.37,2013-08-05 11:45:00,
2013-08-05 07:50:00,63.5,57.9,30.12,ENE,72,0.0,0.0,82,0.00,SCT,,0.00,WeatherDisplay:10.37,2013-08-05 11:50:00,
2013-08-05 07:55:00,63.5,57.6,30.12,ENE,72,0.0,0.0,81,0.00,SCT,,0.00,WeatherDisplay:10.37,2013-08-05 11:55:00,
2013-08-05 08:00:00,63.6,57.7,30.13,ENE,72,0.0,0.0,81,0.00,SCT,,0.00,WeatherDisplay:10.37,2013-08-05 12:00:00,
2013-08-05 08:06:00,63.7,57.8,30.13,ENE,72,0.0,0.0,81,0.00,SCT,,0.00,WeatherDisplay:10.37,2013-08-05 12:06:00,
2013-08-05 08:12:00,63.8,57.9,30.13,ENE,72,0.0,0.0,81,0.00,SCT,,0.00,WeatherDisplay:10.37,2013-08-05 12:12:00,
2013-08-05 08:16:00,63.9,57.6,30.13,ENE,72,0.0,0.0,80,0.00,SCT,,0.00,WeatherDisplay:10.37,2013-08-05 12:16:00,
2013-08-05 08:22:00,64.1,57.8,30.13,ENE,72,0.0,0.0,80,0.00,SCT,,0.00,WeatherDisplay:10.37,2013-08-05 12:22:00,
2013-08-05 08:27:00,64.3,58.0,30.13,ENE,72,0.0,0.0,80,0.00,SCT,,0.00,WeatherDisplay:10.37,2013-08-05 12:27:00,
2013-08-05 08:32:00,64.4,58.1,30.13,ENE,72,0.0,0.0,80,0.00,SCT,,0.00,WeatherDisplay:10.37,2013-08-05 12:32:00,
2013-08-05 08:38:00,64.8,58.5,30.13,ENE,72,0.0,0.0,80,0.00,SCT,,0.00,WeatherDisplay:10.37,2013-08-05 12:38:00,
2013-08-05 08:43:00,65.0,58.4,30.13,ENE,72,0.0,0.0,79,0.00,SCT,,0.00,WeatherDisplay:10.37,2013-08-05 12:43:00,
2013-08-05 08:48:00,65.1,58.1,30.14,ENE,72,0.0,0.0,78,0.00,SCT,,0.00,WeatherDisplay:10.37,2013-08-05 12:48:00,
2013-08-05 08:53:00,65.3,58.3,30.13,ENE,72,0.0,0.0,78,0.00,SCT,,0.00,WeatherDisplay:10.37,2013-08-05 12:53:00,
2013-08-05 08:58:00,65.6,58.6,30.14,ENE,72,0.0,0.0,78,0.00,SCT,,0.00,WeatherDisplay:10.37,2013-08-05 12:58:00,
2013-08-05 09:04:00,65.8,58.8,30.14,ENE,72,0.0,0.0,78,0.00,OVC,SCT,0.00,WeatherDisplay:10.37,2013-08-05 13:04:00,
2013-08-05 09:09:00,66.1,59.1,30.14,ENE,72,0.0,0.0,78,0.00,OVC,SCT,0.00,WeatherDisplay:10.37,2013-08-05 13:09:00,
2013-08-05 09:14:00,66.2,59.2,30.14,ENE,72,0.0,0.0,78,0.00,OVC,SCT,0.00,WeatherDisplay:10.37,2013-08-05 13:14:00,
2013-08-05 09:19:00,66.3,59.3,30.14,ENE,68,1.1,1.1,78,0.00,OVC,SCT,0.00,WeatherDisplay:10.37,2013-08-05 13:19:00,
2013-08-05 09:24:00,66.2,58.8,30.14,ENE,68,0.0,0.0,77,0.00,OVC,SCT,0.00,WeatherDisplay:10.37,2013-08-05 13:24:00,
2013-08-05 09:29:00,66.4,59.0,30.14,ENE,69,0.0,0.0,77,0.00,OVC,SCT,0.00,WeatherDisplay:10.37,2013-08-05 13:29:00,
2013-08-05 09:34:00,66.7,59.3,30.14,ENE,72,1.1,0.0,77,0.00,OVC,SCT,0.00,WeatherDisplay:10.37,2013-08-05 13:34:00,
2013-08-05 09:39:00,66.8,59.0,30.13,NE,48,0.0,1.0,76,0.00,OVC,SCT,0.00,WeatherDisplay:10.37,2013-08-05 13:39:00,
2013-08-05 09:45:00,67.2,59.0,30.13,ENE,76,2.5,2.5,75,0.00,OVC,SCT,0.00,WeatherDisplay:10.37,2013-08-05 13:45:00,
2013-08-05 09:51:00,67.2,58.7,30.13,East,89,0.0,0.0,74,0.00,OVC,SCT,0.00,WeatherDisplay:10.37,2013-08-05 13:51:00,
2013-08-05 09:56:00,67.7,59.2,30.14,East,79,0.0,0.0,74,0.00,OVC,SCT,0.00,WeatherDisplay:10.37,2013-08-05 13:56:00,
2013-08-05 10:01:00,68.1,59.5,30.14,East,83,0.0,0.0,74,0.00,OVC,SCT,0.00,WeatherDisplay:10.37,2013-08-05 14:01:00,
2013-08-05 10:07:00,68.3,59.7,30.14,East,83,0.0,0.0,74,0.00,OVC,SCT,0.00,WeatherDisplay:10.37,2013-08-05 14:07:00,
2013-08-05 10:12:00,68.8,59.8,30.14,WSW,250,0.0,0.0,73,0.00,OVC,SCT,0.00,WeatherDisplay:10.37,2013-08-05 14:12:00,
2013-08-05 10:17:00,69.2,59.8,30.14,South,172,1.1,1.1,72,0.00,OVC,SCT,0.00,WeatherDisplay:10.37,2013-08-05 14:17:00,
2013-08-05 10:22:00,69.4,59.6,30.14,ENE,65,1.2,1.2,71,0.00,OVC,SCT,0.00,WeatherDisplay:10.37,2013-08-05 14:22:00,
2013-08-05 10:27:00,69.7,59.5,30.14,ENE,76,1.1,1.1,70,0.00,OVC,SCT,0.00,WeatherDisplay:10.37,2013-08-05 14:27:00,
2013-08-05 10:33:00,70.2,60.0,30.14,SW,215,5.8,5.8,70,0.00,OVC,SCT,0.00,WeatherDisplay:10.37,2013-08-05 14:33:00,
2013-08-05 10:38:00,70.3,58.4,30.14,NNW,344,3.5,3.5,66,0.00,OVC,SCT,0.00,WeatherDisplay:10.37,2013-08-05 14:38:00,
2013-08-05 10:43:00,69.9,57.2,30.14,South,172,6.9,6.9,64,0.00,OVC,SCT,0.00,WeatherDisplay:10.37,2013-08-05 14:43:00,
2013-08-05 10:49:00,69.9,57.2,30.14,SSW,202,3.5,3.5,64,0.00,OVC,SCT,0.00,WeatherDisplay:10.37,2013-08-05 14:49:00,
2013-08-05 10:54:00,70.4,57.7,30.14,SSW,196,3.5,3.5,64,0.00,OVC,SCT,0.00,WeatherDisplay:10.37,2013-08-05 14:54:00,
2013-08-05 10:59:00,70.7,58.0,30.14,South,188,5.2,5.2,64,0.00,OVC,SCT,0.00,WeatherDisplay:10.37,2013-08-05 14:59:00,
2013-08-05 11:04:00,70.8,58.5,30.14,SSE,154,3.5,3.5,65,0.00,OVC,SCT,0.00,WeatherDisplay:10.37,2013-08-05 15:04:00,
2013-08-05 11:10:00,71.2,58.8,30.14,South,191,2.0,5.0,65,0.00,OVC,SCT,0.00,WeatherDisplay:10.37,2013-08-05 15:10:00,
2013-08-05 11:15:00,71.5,58.7,30.14,SW,233,5.8,5.8,64,0.00,OVC,SCT,0.00,WeatherDisplay:10.37,2013-08-05 15:15:00,
2013-08-05 11:20:00,71.6,58.8,30.14,SSW,198,3.5,3.5,64,0.00,OVC,SCT,0.00,WeatherDisplay:10.37,2013-08-05 15:20:00,
2013-08-05 11:25:00,72.0,59.6,30.14,SSE,168,4.7,4.7,65,0.00,OVC,SCT,0.00,WeatherDisplay:10.37,2013-08-05 15:25:00,
2013-08-05 11:30:00,72.4,59.1,30.14,South,179,6.9,6.9,63,0.00,OVC,SCT,0.00,WeatherDisplay:10.37,2013-08-05 15:30:00,
2013-08-05 11:36:00,72.6,58.9,30.14,South,179,6.9,6.9,62,0.00,OVC,SCT,0.00,WeatherDisplay:10.37,2013-08-05 15:36:00,
2013-08-05 11:41:00,72.2,58.5,30.14,South,191,6.9,6.9,62,0.00,OVC,SCT,0.00,WeatherDisplay:10.37,2013-08-05 15:41:00,
2013-08-05 11:47:00,72.6,58.9,30.13,SSW,209,8.1,8.1,62,0.00,OVC,SCT,0.00,WeatherDisplay:10.37,2013-08-05 15:47:00,
2013-08-05 11:52:00,72.8,58.6,30.13,SW,230,5.8,5.8,61,0.00,OVC,SCT,0.00,WeatherDisplay:10.37,2013-08-05 15:52:00,
2013-08-05 11:58:00,73.2,58.5,30.13,SSW,208,5.8,5.8,60,0.00,OVC,SCT,0.00,WeatherDisplay:10.37,2013-08-05 15:58:00,
2013-08-05 12:03:00,73.6,58.4,30.13,WSW,248,4.6,4.6,59,0.00,OVC,SCT,0.00,WeatherDisplay:10.37,2013-08-05 16:03:00,
2013-08-05 12:08:00,74.0,59.3,30.12,SSE,152,2.5,2.5,60,0.00,OVC,SCT,0.00,WeatherDisplay:10.37,2013-08-05 16:08:00,
2013-08-05 12:13:00,74.2,59.0,30.12,East,97,10.4,10.4,59,0.00,OVC,SCT,0.00,WeatherDisplay:10.37,2013-08-05 16:13:00,
2013-08-05 12:18:00,74.9,60.1,30.12,NE,45,4.6,4.6,60,0.00,OVC,SCT,0.00,WeatherDisplay:10.37,2013-08-05 16:18:00,
2013-08-05 12:23:00,75.3,59.5,30.12,SE,143,4.6,4.6,58,0.00,OVC,SCT,0.00,WeatherDisplay:10.37,2013-08-05 16:23:00,
2013-08-05 12:29:00,74.9,59.6,30.11,South,189,9.2,9.2,59,0.00,OVC,SCT,0.00,WeatherDisplay:10.37,2013-08-05 16:29:00,
2013-08-05 12:34:00,74.6,59.4,30.11,West,265,4.6,4.6,59,0.00,OVC,SCT,0.00,WeatherDisplay:10.37,2013-08-05 16:34:00,
2013-08-05 12:39:00,74.2,59.0,30.11,South,178,11.5,11.5,59,0.00,OVC,SCT,0.00,WeatherDisplay:10.37,2013-08-05 16:39:00,
2013-08-05 12:44:00,74.4,58.7,30.11,SW,223,3.5,3.5,58,0.00,OVC,SCT,0.00,WeatherDisplay:10.37,2013-08-05 16:44:00,
2013-08-05 12:50:00,74.6,58.9,30.11,South,182,2.0,6.0,58,0.00,OVC,SCT,0.00,WeatherDisplay:10.37,2013-08-05 16:50:00,
2013-08-05 12:55:00,75.1,59.8,30.10,South,175,6.0,10.0,59,0.00,OVC,SCT,0.00,WeatherDisplay:10.37,2013-08-05 16:55:00,
2013-08-05 13:00:00,75.5,59.7,30.10,SSW,208,4.6,4.6,58,0.00,OVC,SCT,0.00,WeatherDisplay:10.37,2013-08-05 17:00:00,
2013-08-05 13:05:00,75.8,60.0,30.10,SSW,192,10.4,10.4,58,0.00,BKN,SCT,0.00,WeatherDisplay:10.37,2013-08-05 17:05:00,
2013-08-05 13:10:00,76.4,59.5,30.09,South,190,8.0,14.0,56,0.00,BKN,SCT,0.00,WeatherDisplay:10.37,2013-08-05 17:10:00,
2013-08-05 13:14:00,76.7,59.9,30.09,South,175,9.2,9.2,56,0.00,BKN,SCT,0.00,WeatherDisplay:10.37,2013-08-05 17:14:00,
2013-08-05 13:20:00,76.7,59.4,30.09,South,176,10.4,10.4,55,0.00,BKN,SCT,0.00,WeatherDisplay:10.37,2013-08-05 17:20:00,
2013-08-05 13:25:00,76.7,59.9,30.09,South,177,8.0,14.0,56,0.00,BKN,SCT,0.00,WeatherDisplay:10.37,2013-08-05 17:25:00,
2013-08-05 13:30:00,77.3,59.4,30.09,South,169,9.2,9.2,54,0.00,BKN,SCT,0.00,WeatherDisplay:10.37,2013-08-05 17:30:00,
2013-08-05 13:35:00,77.0,59.6,30.09,South,182,11.5,11.5,55,0.00,BKN,SCT,0.00,WeatherDisplay:10.37,2013-08-05 17:35:00,
2013-08-05 13:41:00,76.9,60.0,30.09,SSE,161,9.2,9.2,56,0.00,BKN,SCT,0.00,WeatherDisplay:10.37,2013-08-05 17:41:00,
2013-08-05 13:46:00,76.6,60.3,30.09,South,185,11.5,11.5,57,0.00,BKN,SCT,0.00,WeatherDisplay:10.37,2013-08-05 17:46:00,
2013-08-05 13:50:00,76.0,60.2,30.09,South,189,11.5,11.5,58,0.00,BKN,SCT,0.00,WeatherDisplay:10.37,2013-08-05 17:50:00,
2013-08-05 13:56:00,75.2,59.9,30.09,South,172,12.7,12.7,59,0.00,BKN,SCT,0.00,WeatherDisplay:10.37,2013-08-05 17:56:00,
2013-08-05 14:01:00,74.7,59.5,30.09,South,169,8.1,8.1,59,0.00,SCT,,0.00,WeatherDisplay:10.37,2013-08-05 18:01:00,
2013-08-05 14:06:00,75.0,59.7,30.09,SSE,167,9.2,9.4,59,0.00,SCT,,0.00,WeatherDisplay:10.37,2013-08-05 18:06:00,
2013-08-05 14:11:00,75.1,60.3,30.08,SSW,196,6.9,6.9,60,0.00,SCT,,0.00,WeatherDisplay:10.37,2013-08-05 18:11:00,
2013-08-05 14:17:00,75.9,60.6,30.08,SSE,167,5.8,5.8,59,0.00,SCT,,0.00,WeatherDisplay:10.37,2013-08-05 18:17:00,
2013-08-05 14:22:00,76.1,60.8,30.08,South,178,11.5,11.5,59,0.00,SCT,,0.00,WeatherDisplay:10.37,2013-08-05 18:22:00,
2013-08-05 14:27:00,76.5,61.1,30.08,SW,224,8.1,8.1,59,0.00,SCT,,0.00,WeatherDisplay:10.37,2013-08-05 18:27:00,
2013-08-05 14:32:00,76.8,60.9,30.07,SSE,155,12.7,12.7,58,0.00,SCT,,0.00,WeatherDisplay:10.37,2013-08-05 18:32:00,
2013-08-05 14:38:00,76.7,60.8,30.07,SSE,148,5.8,5.8,58,0.00,SCT,,0.00,WeatherDisplay:10.37,2013-08-05 18:38:00,
2013-08-05 14:43:00,76.3,61.4,30.07,South,172,9.2,9.2,60,0.00,SCT,,0.00,WeatherDisplay:10.37,2013-08-05 18:43:00,
2013-08-05 14:48:00,76.5,61.1,30.07,South,175,10.4,10.4,59,0.00,SCT,,0.00,WeatherDisplay:10.37,2013-08-05 18:48:00,
2013-08-05 14:53:00,76.9,61.5,30.07,SSE,161,10.4,10.4,59,0.00,SCT,,0.00,WeatherDisplay:10.37,2013-08-05 18:53:00,
2013-08-05 14:58:00,76.8,61.4,30.07,SSE,165,3.1,4.4,59,0.00,SCT,,0.00,WeatherDisplay:10.37,2013-08-05 18:58:00,
2013-08-05 15:03:00,76.7,61.8,30.07,SSE,167,10.4,10.4,60,0.00,OVC,SCT,0.00,WeatherDisplay:10.37,2013-08-05 19:03:00,
2013-08-05 15:09:00,77.0,62.1,30.07,South,179,6.2,6.2,60,0.00,OVC,SCT,0.00,WeatherDisplay:10.37,2013-08-05 19:09:00,
2013-08-05 15:14:00,77.0,62.1,30.06,South,174,5.8,5.8,60,0.00,OVC,SCT,0.00,WeatherDisplay:10.37,2013-08-05 19:14:00,
2013-08-05 15:20:00,76.8,61.4,30.06,South,179,8.0,14.0,59,0.00,OVC,SCT,0.00,WeatherDisplay:10.37,2013-08-05 19:20:00,
2013-08-05 15:25:00,76.4,61.4,30.06,South,177,7.0,12.0,60,0.00,OVC,SCT,0.00,WeatherDisplay:10.37,2013-08-05 19:25:00,
2013-08-05 15:30:00,76.5,61.6,30.06,SSW,202,6.9,6.9,60,0.00,OVC,SCT,0.00,WeatherDisplay:10.37,2013-08-05 19:30:00,
2013-08-05 15:35:00,77.0,62.1,30.06,South,184,3.0,9.0,60,0.00,OVC,SCT,0.00,WeatherDisplay:10.37,2013-08-05 19:35:00,
2013-08-05 15:40:00,77.0,61.6,30.06,South,181,8.0,13.0,59,0.00,OVC,SCT,0.00,WeatherDisplay:10.37,2013-08-05 19:40:00,
2013-08-05 15:45:00,76.3,61.4,30.06,South,186,9.2,9.2,60,0.00,OVC,SCT,0.00,WeatherDisplay:10.37,2013-08-05 19:45:00,
2013-08-05 15:51:00,75.9,61.5,30.06,SSW,212,9.2,9.2,61,0.00,OVC,SCT,0.00,WeatherDisplay:10.37,2013-08-05 19:51:00,
2013-08-05 15:56:00,75.5,61.1,30.06,South,184,10.4,10.4,61,0.00,OVC,SCT,0.00,WeatherDisplay:10.37,2013-08-05 19:56:00,
2013-08-05 16:01:00,75.2,61.3,30.06,South,174,5.8,5.8,62,0.00,BKN,SCT,0.00,WeatherDisplay:10.37,2013-08-05 20:01:00,
2013-08-05 16:06:00,75.6,61.7,30.06,ESE,114,6.9,6.9,62,0.00,BKN,SCT,0.00,WeatherDisplay:10.37,2013-08-05 20:06:00,
2013-08-05 16:11:00,76.2,62.3,30.05,SSW,213,8.1,8.1,62,0.00,BKN,SCT,0.00,WeatherDisplay:10.37,2013-08-05 20:11:00,
2013-08-05 16:16:00,76.3,62.4,30.05,SSW,203,8.1,8.1,62,0.00,BKN,SCT,0.00,WeatherDisplay:10.37,2013-08-05 20:16:00,
2013-08-05 16:22:00,76.6,62.2,30.05,SSW,192,9.2,9.2,61,0.00,BKN,SCT,0.00,WeatherDisplay:10.37,2013-08-05 20:22:00,
2013-08-05 16:28:00,76.8,62.8,30.05,South,186,11.5,11.5,62,0.00,BKN,SCT,0.00,WeatherDisplay:10.37,2013-08-05 20:28:00,
2013-08-05 16:33:00,76.5,62.5,30.05,South,172,11.5,11.5,62,0.00,BKN,SCT,0.00,WeatherDisplay:10.37,2013-08-05 20:33:00,
2013-08-05 16:38:00,75.6,62.6,30.05,SSW,196,10.4,10.4,64,0.00,BKN,SCT,0.00,WeatherDisplay:10.37,2013-08-05 20:38:00,
2013-08-05 16:43:00,74.9,61.9,30.04,SSE,165,15.0,15.0,64,0.00,BKN,SCT,0.00,WeatherDisplay:10.37,2013-08-05 20:43:00,
2013-08-05 16:48:00,74.3,61.8,30.04,SSW,198,15.0,15.0,65,0.00,BKN,SCT,0.00,WeatherDisplay:10.37,2013-08-05 20:48:00,
2013-08-05 16:54:00,74.1,62.1,30.04,South,172,16.1,16.1,66,0.00,BKN,SCT,0.00,WeatherDisplay:10.37,2013-08-05 20:54:00,
2013-08-05 16:59:00,74.4,61.9,30.04,SSE,165,12.7,12.7,65,0.00,BKN,SCT,0.00,WeatherDisplay:10.37,2013-08-05 20:59:00,
2013-08-05 17:04:00,74.4,61.9,30.04,SSW,198,16.1,16.1,65,0.00,BKN,SCT,0.00,WeatherDisplay:10.37,2013-08-05 21:04:00,
2013-08-05 17:09:00,74.3,62.2,30.04,South,182,9.8,9.8,66,0.00,BKN,SCT,0.00,WeatherDisplay:10.37,2013-08-05 21:09:00,
2013-08-05 17:14:00,74.4,61.9,30.04,South,189,11.5,11.5,65,0.00,BKN,SCT,0.00,WeatherDisplay:10.37,2013-08-05 21:14:00,
2013-08-05 17:19:00,74.3,62.2,30.04,SSE,167,11.5,11.5,66,0.00,BKN,SCT,0.00,WeatherDisplay:10.37,2013-08-05 21:19:00,
2013-08-05 17:25:00,74.2,62.1,30.04,South,177,9.0,15.0,66,0.00,BKN,SCT,0.00,WeatherDisplay:10.37,2013-08-05 21:25:00,
2013-08-05 17:30:00,74.1,62.5,30.04,SSE,168,10.4,10.4,67,0.00,BKN,SCT,0.00,WeatherDisplay:10.37,2013-08-05 21:30:00,
2013-08-05 17:35:00,74.0,62.0,30.04,South,181,11.5,11.5,66,0.00,BKN,SCT,0.00,WeatherDisplay:10.37,2013-08-05 21:35:00,
2013-08-05 17:40:00,74.0,62.8,30.05,South,179,11.5,11.5,68,0.00,BKN,SCT,0.00,WeatherDisplay:10.37,2013-08-05 21:40:00,
2013-08-05 17:45:00,73.8,62.6,30.04,South,169,10.4,10.4,68,0.00,BKN,SCT,0.00,WeatherDisplay:10.37,2013-08-05 21:45:00,
2013-08-05 17:50:00,73.7,62.5,30.04,SSW,209,10.4,10.4,68,0.00,BKN,SCT,0.00,WeatherDisplay:10.37,2013-08-05 21:50:00,
2013-08-05 17:55:00,73.8,63.0,30.04,South,189,6.9,6.9,69,0.00,BKN,SCT,0.00,WeatherDisplay:10.37,2013-08-05 21:55:00,
2013-08-05 18:01:00,73.6,62.8,30.04,South,174,11.5,11.5,69,0.00,SCT,,0.00,WeatherDisplay:10.37,2013-08-05 22:01:00,
2013-08-05 18:06:00,73.4,62.6,30.05,South,181,9.5,9.5,69,0.00,SCT,,0.00,WeatherDisplay:10.37,2013-08-05 22:06:00,
2013-08-05 18:11:00,73.3,62.6,30.04,South,186,9.2,9.2,69,0.00,SCT,,0.00,WeatherDisplay:10.37,2013-08-05 22:11:00,
2013-08-05 18:16:00,73.2,62.5,30.04,SSW,200,9.2,9.2,69,0.00,SCT,,0.00,WeatherDisplay:10.37,2013-08-05 22:16:00,
2013-08-05 18:23:00,73.2,62.9,30.04,South,172,10.4,10.4,70,0.00,SCT,,0.00,WeatherDisplay:10.37,2013-08-05 22:23:00,
2013-08-05 18:28:00,73.3,63.0,30.04,South,184,7.1,7.1,70,0.00,SCT,,0.00,WeatherDisplay:10.37,2013-08-05 22:28:00,
2013-08-05 18:33:00,73.2,63.3,30.04,SE,127,4.6,4.6,71,0.00,SCT,,0.00,WeatherDisplay:10.37,2013-08-05 22:33:00,
2013-08-05 18:38:00,73.4,63.5,30.04,SSE,164,6.9,6.9,71,0.00,SCT,,0.00,WeatherDisplay:10.37,2013-08-05 22:38:00,
2013-08-05 18:43:00,73.1,63.2,30.05,South,172,9.2,9.2,71,0.00,SCT,,0.00,WeatherDisplay:10.37,2013-08-05 22:43:00,
2013-08-05 18:48:00,72.8,62.9,30.04,South,185,6.9,6.9,71,0.00,SCT,,0.00,WeatherDisplay:10.37,2013-08-05 22:48:00,
2013-08-05 18:53:00,72.6,63.1,30.04,South,174,6.9,6.9,72,0.00,SCT,,0.00,WeatherDisplay:10.37,2013-08-05 22:53:00,
2013-08-05 18:58:00,72.6,63.1,30.04,South,174,6.9,6.9,72,0.00,SCT,,0.00,WeatherDisplay:10.37,2013-08-05 22:58:00,
2013-08-05 19:04:00,72.7,63.2,30.04,South,186,6.3,6.3,72,0.00,SCT,,0.00,WeatherDisplay:10.37,2013-08-05 23:04:00,
2013-08-05 19:09:00,72.6,63.5,30.04,South,178,5.8,5.8,73,0.00,SCT,,0.00,WeatherDisplay:10.37,2013-08-05 23:09:00,
2013-08-05 19:14:00,72.5,63.0,30.05,SSW,192,9.2,9.2,72,0.00,SCT,,0.00,WeatherDisplay:10.37,2013-08-05 23:14:00,
2013-08-05 19:19:00,72.5,63.8,30.05,South,181,8.1,8.1,74,0.00,SCT,,0.00,WeatherDisplay:10.37,2013-08-05 23:19:00,
2013-08-05 19:24:00,72.1,63.0,30.05,South,174,6.9,6.9,73,0.00,SCT,,0.00,WeatherDisplay:10.37,2013-08-05 23:24:00,
2013-08-05 19:30:00,72.3,63.2,30.05,South,182,8.1,8.1,73,0.00,SCT,,0.00,WeatherDisplay:10.37,2013-08-05 23:30:00,
2013-08-05 19:35:00,72.1,63.4,30.05,South,177,7.0,9.0,74,0.00,SCT,SCT,0.00,WeatherDisplay:10.37,2013-08-05 23:35:00,
2013-08-05 19:40:00,72.0,63.3,30.05,South,175,6.0,9.0,74,0.00,SCT,SCT,0.00,WeatherDisplay:10.37,2013-08-05 23:40:00,
2013-08-05 19:45:00,71.8,63.5,30.05,South,189,6.9,6.9,75,0.00,SCT,,0.00,WeatherDisplay:10.37,2013-08-05 23:45:00,
2013-08-05 19:50:00,71.7,63.8,30.05,South,174,5.8,5.8,76,0.00,SCT,,0.00,WeatherDisplay:10.37,2013-08-05 23:50:00,
2013-08-05 19:55:00,71.5,63.6,30.05,South,178,6.9,6.9,76,0.00,SCT,,0.00,WeatherDisplay:10.37,2013-08-05 23:55:00,
2013-08-05 20:01:00,71.6,63.7,30.05,SSW,205,9.2,9.2,76,0.00,SCT,,0.00,WeatherDisplay:10.37,2013-08-06 00:01:00,
2013-08-05 20:06:00,71.5,63.2,30.05,SSE,167,4.6,4.6,75,0.00,BKN,SCT,0.00,WeatherDisplay:10.37,2013-08-06 00:06:00,
2013-08-05 20:11:00,71.4,63.5,30.05,SE,127,2.3,2.3,76,0.00,BKN,SCT,0.00,WeatherDisplay:10.37,2013-08-06 00:11:00,
2013-08-05 20:16:00,71.4,63.5,30.05,SSE,165,0.0,0.0,76,0.00,BKN,SCT,0.00,WeatherDisplay:10.37,2013-08-06 00:16:00,
2013-08-05 20:21:00,71.6,63.7,30.05,SSE,165,0.0,0.0,76,0.00,BKN,SCT,0.00,WeatherDisplay:10.37,2013-08-06 00:21:00,
2013-08-05 20:26:00,71.4,63.5,30.05,South,176,3.7,3.7,76,0.00,BKN,SCT,0.00,WeatherDisplay:10.37,2013-08-06 00:26:00,
2013-08-05 20:31:00,71.2,63.3,30.05,South,175,4.6,4.6,76,0.00,BKN,SCT,0.00,WeatherDisplay:10.37,2013-08-06 00:31:00,
2013-08-05 20:36:00,71.2,63.7,30.05,SSE,168,3.5,3.5,77,0.00,BKN,SCT,0.00,WeatherDisplay:10.37,2013-08-06 00:36:00,
2013-08-05 20:41:00,70.9,63.7,30.05,SSW,198,4.6,4.6,78,0.00,BKN,SCT,0.00,WeatherDisplay:10.37,2013-08-06 00:41:00,
2013-08-05 20:46:00,70.7,63.5,30.05,South,176,3.5,3.5,78,0.00,BKN,SCT,0.00,WeatherDisplay:10.37,2013-08-06 00:46:00,
2013-08-05 20:51:00,70.8,63.3,30.05,South,189,5.8,5.8,77,0.00,BKN,SCT,0.00,WeatherDisplay:10.37,2013-08-06 00:51:00,
2013-08-05 20:57:00,70.9,63.4,30.06,SE,143,2.3,3.0,77,0.00,BKN,SCT,0.00,WeatherDisplay:10.37,2013-08-06 00:57:00,
2013-08-05 21:02:00,70.8,63.3,30.06,South,181,3.5,3.5,77,0.00,BKN,SCT,0.00,WeatherDisplay:10.37,2013-08-06 01:02:00,
2013-08-05 21:07:00,70.9,63.0,30.06,SSW,199,2.9,2.9,76,0.00,BKN,SCT,0.00,WeatherDisplay:10.37,2013-08-06 01:07:00,
2013-08-05 21:12:00,70.8,62.9,30.06,South,169,4.6,4.6,76,0.00,BKN,SCT,0.00,WeatherDisplay:10.37,2013-08-06 01:12:00,
2013-08-05 21:18:00,70.8,63.3,30.06,South,172,3.5,3.5,77,0.00,BKN,SCT,0.00,WeatherDisplay:10.37,2013-08-06 01:18:00,
2013-08-05 21:23:00,70.6,63.4,30.06,SSW,195,4.6,4.6,78,0.00,BKN,SCT,0.00,WeatherDisplay:10.37,2013-08-06 01:23:00,
2013-08-05 21:28:00,70.4,63.2,30.06,South,184,5.8,5.8,78,0.00,BKN,SCT,0.00,WeatherDisplay:10.37,2013-08-06 01:28:00,
2013-08-05 21:33:00,70.3,63.2,30.06,South,171,4.6,4.6,78,0.00,BKN,SCT,0.00,WeatherDisplay:10.37,2013-08-06 01:33:00,
2013-08-05 21:38:00,70.3,62.8,30.06,South,188,5.8,5.8,77,0.00,BKN,SCT,0.00,WeatherDisplay:10.37,2013-08-06 01:38:00,
2013-08-05 21:43:00,70.1,62.6,30.06,SW,224,8.1,8.1,77,0.00,BKN,SCT,0.00,WeatherDisplay:10.37,2013-08-06 01:43:00,
2013-08-05 21:48:00,70.1,62.2,30.05,SSW,210,8.1,8.1,76,0.00,BKN,SCT,0.00,WeatherDisplay:10.37,2013-08-06 01:48:00,
2013-08-05 21:53:00,69.8,61.9,30.06,SSW,202,4.6,4.6,76,0.00,BKN,SCT,0.00,WeatherDisplay:10.37,2013-08-06 01:53:00,
2013-08-05 21:59:00,70.1,62.2,30.06,South,179,5.8,5.8,76,0.00,BKN,SCT,0.00,WeatherDisplay:10.37,2013-08-06 01:59:00,
2013-08-05 22:04:00,70.1,62.2,30.06,SSW,208,4.6,4.6,76,0.00,OVC,SCT,0.00,WeatherDisplay:10.37,2013-08-06 02:04:00,
2013-08-05 22:09:00,70.0,62.5,30.06,South,171,3.5,3.5,77,0.00,OVC,SCT,0.00,WeatherDisplay:10.37,2013-08-06 02:09:00,
2013-08-05 22:14:00,70.1,63.0,30.05,South,174,4.6,4.6,78,0.00,OVC,SCT,0.00,WeatherDisplay:10.37,2013-08-06 02:14:00,
2013-08-05 22:19:00,69.7,62.6,30.05,SSE,167,6.9,6.9,78,0.00,OVC,SCT,0.00,WeatherDisplay:10.37,2013-08-06 02:19:00,
2013-08-05 22:24:00,69.8,62.7,30.05,South,179,4.6,4.6,78,0.00,OVC,SCT,0.00,WeatherDisplay:10.37,2013-08-06 02:24:00,
2013-08-05 22:30:00,69.8,62.7,30.05,South,191,6.9,6.9,78,0.00,OVC,SCT,0.00,WeatherDisplay:10.37,2013-08-06 02:30:00,
2013-08-05 22:35:00,69.6,62.5,30.05,South,182,5.0,9.0,78,0.00,OVC,SCT,0.00,WeatherDisplay:10.37,2013-08-06 02:35:00,
2013-08-05 22:40:00,69.3,62.5,30.04,South,172,3.5,3.5,79,0.00,OVC,SCT,0.00,WeatherDisplay:10.37,2013-08-06 02:40:00,
2013-08-05 22:45:00,69.3,62.5,30.04,South,189,5.8,5.8,79,0.00,OVC,SCT,0.00,WeatherDisplay:10.37,2013-08-06 02:45:00,
2013-08-05 22:50:00,69.2,62.4,30.04,South,182,4.6,4.6,79,0.00,OVC,SCT,0.00,WeatherDisplay:10.37,2013-08-06 02:50:00,
2013-08-05 22:57:00,69.0,62.6,30.04,SSE,160,5.8,5.8,80,0.00,OVC,SCT,0.00,WeatherDisplay:10.37,2013-08-06 02:57:00,
2013-08-05 23:02:00,69.0,62.6,30.04,South,181,5.8,5.8,80,0.00,OVC,SCT,0.00,WeatherDisplay:10.37,2013-08-06 03:02:00,
2013-08-05 23:07:00,68.7,62.3,30.04,SSW,213,6.9,6.9,80,0.00,OVC,SCT,0.00,WeatherDisplay:10.37,2013-08-06 03:07:00,
2013-08-05 23:12:00,68.8,62.4,30.04,South,178,2.6,2.6,80,0.00,OVC,SCT,0.00,WeatherDisplay:10.37,2013-08-06 03:12:00,
2013-08-05 23:17:00,68.8,62.4,30.04,SSW,202,2.3,2.3,80,0.00,OVC,SCT,0.00,WeatherDisplay:10.37,2013-08-06 03:17:00,
2013-08-05 23:22:00,68.9,62.5,30.04,SSW,209,4.6,4.6,80,0.00,OVC,SCT,0.00,WeatherDisplay:10.37,2013-08-06 03:22:00,
2013-08-05 23:27:00,68.7,62.3,30.04,SSE,160,3.5,3.5,80,0.00,OVC,SCT,0.00,WeatherDisplay:10.37,2013-08-06 03:27:00,
2013-08-05 23:33:00,68.6,62.2,30.04,ESE,113,3.5,3.5,80,0.00,OVC,SCT,0.00,WeatherDisplay:10.37,2013-08-06 03:33:00,
2013-08-05 23:38:00,68.8,62.4,30.04,SSE,151,0.0,0.0,80,0.00,OVC,SCT,0.00,WeatherDisplay:10.37,2013-08-06 03:38:00,
2013-08-05 23:43:00,68.8,62.4,30.04,SE,130,2.3,2.3,80,0.00,OVC,SCT,0.00,WeatherDisplay:10.37,2013-08-06 03:43:00,
2013-08-05 23:48:00,69.0,62.6,30.04,South,178,4.6,4.6,80,0.00,OVC,SCT,0.00,WeatherDisplay:10.37,2013-08-06 03:48:00,
2013-08-05 23:53:00,68.9,62.5,30.04,SSE,161,3.1,3.1,80,0.00,OVC,SCT,0.00,WeatherDisplay:10.37,2013-08-06 03:53:00,
2013-08-05 23:58:00,68.7,62.3,30.04,South,179,4.6,4.6,80,0.00,OVC,SCT,0.00,WeatherDisplay:10.37,2013-08-06 03:58:00,